Regional Weather Roundup
Issued by NWS

Home | Current Version | Previous Version | Graphics & Text | Print | Product List | Glossary On
Versions: 1 2 3 4 5 6 7 8 9 10 11 12 13 14 15 16 17 18 19 20 21 22 23 24 25 26 27 28 29 30 31 32 33 34 35 36 37 38 39 40 41 42 43 44 45 46 47 48 49 50
000
ASUS43 KDMX 290901
RWRIA

WEATHER ROUNDUP FOR IOWA
NATIONAL WEATHER SERVICE DES MOINES IA
400 AM CDT MON MAY 29 2017

NOTE: "FAIR" INDICATES FEW OR NO CLOUDS BELOW 12,000 FEET WITH NO
SIGNIFICANT WEATHER AND/OR OBSTRUCTIONS TO VISIBILITY.

* - THESE STATIONS ARE NOT NWS STATIONS...THUS NOT UNDER NWS
QUALITY CONTROL.  THEY ALSO DO NOT REPORT WEATHER SUCH
AS PRECIPITATION OR FOG.

IAZ001>003-012>014-020>022-031>034-043>046-291000-
   NORTHWEST IOWA

CITY           SKY/WX    TMP DP  RH WIND       PRES   REMARKS
CARROLL *      PTCLDY    54  48  82 W7        29.89R
CHEROKEE *     CLEAR     53  46  76 NW5       29.88S
DENISON *      CLEAR     50  45  81 SE5       29.91R
LE MARS *      PTCLDY    52  45  76 NW7       29.91R
ORANGE CITY *  PTCLDY    52  46  82 NW6       29.90S
SHELDON *      PTCLDY    50  45  81 W8        29.87S
SIOUX CITY     CLEAR     50  45  83 NW6       29.90R
SPENCER        PTCLDY    52  47  83 W10       29.87F
STORM LAKE *   PTCLDY    55  43  62 NW13      29.88R
$$

IAZ055>058-069>071-079>083-090>094-291000-
   SOUTHWEST IOWA

CITY           SKY/WX    TMP DP  RH WIND       PRES   REMARKS
ATLANTIC *     CLEAR     55  46  71 CALM      29.89R
AUDUBON *      PTCLDY    52  46  82 NW3       29.90R
CLARINDA *     CLOUDY    59  48  67 W8        29.95R
COUNCIL BLFS * CLEAR     59  45  58 W6        29.92R
CRESTON *      CLOUDY    57  46  67 SW7       29.92R
HARLAN  *      CLEAR     54  46  76 N5        29.93R
LAMONI         CLOUDY    57  45  64 SW10      29.89S
RED OAK *      MOCLDY    54  48  82 SW5       29.92R
SHENANDOAH *   CLOUDY    57  50  77 SW6       29.94R
$$

IAZ047>049-059>061-072>074-084-291000-
   CENTRAL IOWA

CITY           SKY/WX    TMP DP  RH WIND       PRES   REMARKS
AMES           PTCLDY    54  47  77 W9        29.86R
ANKENY *       CLOUDY    54  50  87 NW6       29.89R
BOONE *        CLEAR     54 N/A N/A W8        29.87R
CHARITON *     CLOUDY    55  46  71 W8        29.87S
DES MOINES     CLOUDY    58  48  69 W3        29.86R
GRINNELL*      CLOUDY    55  47  76 SW5       29.88R
KNOXVILLE *    CLOUDY    57  46  67 SW8       29.85R
MARSHALLTOWN   PTCLDY    52  46  80 W7        29.84R
NEWTON *       CLOUDY    55  46  71 W6        29.86R
PELLA *        CLOUDY    59  47  63 W5        29.87R
PERRY *          N/A     53  49  85 W5        29.88R
$$

IAZ004>006-015-016-023>025-035-036-291000-
   NORTH CENTRAL IOWA

CITY           SKY/WX    TMP DP  RH WIND       PRES   REMARKS
ALGONA *       PTCLDY    55  46  71 NW15      29.84S
CLARION *      CLEAR     54  45  71 W8        29.85R
ESTHERVILLE    CLEAR     50  46  86 NW12      29.84F
FORT DODGE *   CLEAR     52  45  76 CALM      29.87R
MASON CITY     CLEAR     54  44  69 NW16      29.82S
FOREST CITY *    N/A     54  37  54 NW10      29.82S
WEBSTER CITY * CLEAR     54  46  76 NW9       29.84R
IOWA FALLS *     N/A     55  46  73 W10       29.86R
$$

IAZ007>011-017>019-026>030-037>042-050>054-066-291000-
   NORTHEAST IOWA

CITY           SKY/WX    TMP DP  RH WIND       PRES   REMARKS
CEDAR RAPIDS   MOCLDY    52  48  86 S5        29.83R
CHARLES CITY * CLEAR     55  43  62 W13       29.80R
CLINTON *      MOCLDY    55  50  83 W5        29.82R
DECORAH *      CLEAR     54  45  71 VRB5      29.76R
DUBUQUE        CLOUDY    52  46  80 S6        29.79R
MONTICELLO *   CLOUDY    54  50  87 S5        29.80R
OELWEIN *      CLEAR     54  46  76 W7        29.80S
WATERLOO       CLEAR     54  44  69 W8        29.80R
$$

IAZ064-065-067-068-078-291000-
   EAST CENTRAL IOWA

CITY           SKY/WX    TMP DP  RH WIND       PRES   REMARKS
DAVENPORT      PTCLDY    57  48  72 SW7       29.83R
IOWA CITY      CLOUDY    58  47  66 CALM      29.85R
MT. PLEASANT * CLEAR     54  48  81 S6        29.86S
MUSCATINE *    PTCLDY    57  46  67 CALM      29.84S
QUAD CITIES    MOCLDY    58  48  69 SW6       29.82R
$$

IAZ062-063-075>077-085>089-095>099-291000-
   SOUTHEAST IOWA

CITY           SKY/WX    TMP DP  RH WIND       PRES   REMARKS
BURLINGTON     CLEAR     56  51  84 CALM      29.85F
FAIRFIELD *    MOCLDY    55  46  71 SW8       29.85S
FORT MADISON * CLEAR     57  50  77 SW5       29.88R
KEOKUK *       CLEAR     57  50  77 SW7       29.87S
OSKALOOSA *    CLOUDY    56  47  73 SW5       29.85F
OTTUMWA        MOCLDY    55  48  77 SW5       29.85S
WASHINGTON *   MOCLDY    55  50  82 W6        29.85S
$$

ABBREVIATIONS USED IN REMARKS
   TC - TEMPERATURES IN CELSIUS
  WCI - WIND CHILL INDEX
   HX - HEAT INDEX
  VSB - VISIBILITY
$$





USA.gov is the U.S. government's official web portal to all federal, state and local government web resources and services.